Weather in Bansko

Bulgaria     41°50′14″N   23°29′17″E
temp.,
°C
wind,
m/s
gust,
m/s
humid.,
%
clouds,
%
prec.,
mm/h
press.,
hPa
HPBL,
m
4 july, mon
mon400:00+13ne11766 0.0 102115
03:00+13nne11780 0.0 102014
06:00+12ne11710 0.0 102015
09:00+18ne12530 0.0 1019590
12:00+23ne234216 0.0 10181871
15:00+23ne123841 0.0 10171948
18:00+21ne224667 0.0 1017872
21:00+16ne116361 0.0 101818
5 july, tue
tue500:00+15ese01622 0.0 101912
03:00+14nne11670 0.0 101912
06:00+14n11680 0.0 101812
09:00+20nne12490 0.0 1018963
12:00+24nne123752 0.0 10172288
15:00+20n1256100 0.2 1017713
18:00+19ene115935 0.2 1016259
21:00+17n016533 0.2 101612
6 july, wed
wed600:00+16wsw116688 0.0 101711
03:00+15nnw017121 0.1 101711
06:00+14nw1178100 0.1 101614
09:00+15nnw1182100 1.3 101746
12:00+20nw116032 2.3 1016782
15:00+20nnw126145 5.6 1015942
18:00+16ne128012 2.1 1016130
21:00+15wnw01845 3.4 101711
7 july, thu
thu700:00+12n128591 1.3 101817
03:00+12nnw118624 1.3 101715
06:00+11n11890 0.0 101715
09:00+17nnw11720 0.0 1016408
12:00+21w224836 0.3 10151792
15:00+22wnw223541 0.7 10142430
18:00+22nne123548 0.0 10132196
21:00+15ese127340 0.6 101547
8 july, fri
fri800:00+14s117333 0.0 101614
03:00+12e11785 0.2 101612
06:00+12ese01815 0.2 101512
09:00+17se116615 0.6 1014294
12:00+19ssw225774 1.5 10131296
15:00+19ese136536 4.1 10121239
18:00+13wsw2598100 14.7 1012410
21:00+11n4599100 40.2 1013188